Flag for Switzerland Weather past 2 weeks in Emmen, Lucerne, Switzerland

Now
70 °F

Mild.


Feels Like: 70 °F
Forecast: 46 / 64 °F
Wind: 5 mph from East

Location: Giswil

Current Time: Sep 4, 2015 at 5:27:50 PM

Latest Report: Sep 4, 2015 at 4:00 PM


Visibility: N/A

Pressure: 29.92 "Hg

Humidity: 50%

Dew point: 50 °F

Location of EmmenLocation

Historic Weather in Emmen — Graph

°F

Emmen temperature yesterday

Maximum temperature yesterday: 62 °F (at 12:00 PM)
Minimum temperature yesterday: 57 °F (at 7:00 AM)
Average temperature yesterday: 60 °F

Past Weeks' High & Low Weather Summary

 TemperatureHumidityPressure
High89 °F (Aug 30, 3:00 PM)100% (Aug 21, 3:00 AM)30.29 "Hg (Aug 21, 3:00 AM)
Low47 °F (Aug 26, 7:00 AM)31% (Aug 30, 4:00 PM)29.70 "Hg (Aug 24, 2:00 PM)
Average64 °F79%30.01 "Hg
* Reported Aug 20 4:00 PM — Sep 4 4:00 PM, Emmen, Weather by CustomWeather, © 2015

Note: Actual official high and low records may vary slightly from our data, if they occured in-between our weather recording intervals... More about our weather records

Advertising

Emmen weather history for previous 24 hours

 ConditionsComfort  
Time TempWeatherWind HumidityBarometerVisibility
4:00 PM
Fri, Sep 4
70 °FMild.5 mph50%29.92 "HgN/A
3:00 PM70 °FMild.5 mph50%29.94 "HgN/A
2:00 PM69 °FMild.6 mph52%29.95 "HgN/A
1:00 PM68 °FMild.3 mph52%29.97 "HgN/A
12:00 PM64 °FMild.1 mph58%30.00 "HgN/A
11:00 AM61 °FCool.2 mph68%30.02 "HgN/A
10:00 AM57 °FCool.2 mph81%30.03 "HgN/A
9:00 AM55 °FCool.1 mph92%30.05 "HgN/A
8:00 AM51 °FCool.1 mph100%30.07 "HgN/A
7:00 AM51 °FCool.2 mph99%30.06 "HgN/A
6:00 AM54 °FCool.2 mph99%30.04 "HgN/A
5:00 AM55 °FCool.1 mph99%30.05 "HgN/A
4:00 AM55 °FCool.1 mph100%30.05 "HgN/A
3:00 AM56 °FCool.1 mph99%30.04 "HgN/A
2:00 AM56 °FCool.2 mph98%30.05 "HgN/A
1:00 AM56 °FCool.No wind99%30.04 "HgN/A
12:00 AM57 °FCool.1 mph98%30.03 "HgN/A
10:00 PM
Thu, Sep 3
60 °FCool.2 mph81%30.01 "HgN/A
9:00 PM58 °FCool.1 mph95%30.00 "HgN/A
8:00 PM59 °FCool.2 mph87%29.98 "HgN/A
7:00 PM61 °FCool.2 mph80%29.96 "HgN/A
6:00 PM62 °FCool.1 mph74%29.96 "HgN/A
5:00 PM62 °FCool.1 mph74%29.97 "HgN/A
Weather by CustomWeather, © 2015

See weather overviewHow to use our weather pages